K5RNB Weather Reports


Display with metric or nautical units.
time (UTC)temp
F
wind
direction
speed
MPH
gust
MPH
rain 1hr
in
rain 24hr
in
rain mn
in
humidity
%
barometer
mb
20260905125911 78 40 0.0 0.0 0.00 0.00 0.00 81 1012.4
20260905125412 78 40 0.0 2.0 0.00 0.00 0.00 82 1012.4
20260905124911 78 41 0.0 2.0 0.00 0.00 0.00 83 1012.3
20260905122911 75 144 0.0 2.0 0.00 0.00 0.00 84 1012.1
20260905122411 75 144 1.0 2.0 0.00 0.00 0.00 84 1012.1
20260905121911 76 144 0.0 1.0 0.00 0.00 0.00 84 1012.0
20260905121411 76 144 0.0 1.0 0.00 0.00 0.00 84 1012.0
20260905120911 76 144 0.0 1.0 0.00 0.00 0.00 84 1011.9
20260905120411 76 144 0.0 1.0 0.00 0.00 0.00 84 1011.7
20260905115911 76 144 0.0 3.0 0.00 0.00 0.00 84 1011.7
20260905115411 76 144 1.0 3.0 0.00 0.00 0.00 84 1011.6
20260905114911 76 144 2.0 3.0 0.00 0.00 0.00 83 1011.6
20260905114411 76 144 2.0 3.0 0.00 0.00 0.00 83 1011.5
20260905113912 76 102 2.0 3.0 0.00 0.00 0.00 83 1011.5
20260905113411 76 140 0.0 3.0 0.00 0.00 0.00 82 1011.5
20260905111911 77 126 0.0 0.0 0.00 0.00 0.00 82 1011.6
20260905111412 77 126 0.0 1.0 0.00 0.00 0.00 82 1011.6
20260905105912 77 141 3.0 6.0 0.00 0.00 0.00 83 1011.6
20260905105411 76 127 3.0 6.0 0.00 0.00 0.00 83 1011.6
20260905104911 76 155 3.0 3.0 0.00 0.00 0.00 83 1011.5
20260905104411 76 126 3.0 5.0 0.00 0.00 0.00 83 1011.5
20260905103912 76 160 3.0 5.0 0.00 0.00 0.00 82 1011.5
20260905102912 76 144 0.0 0.0 0.00 0.00 0.00 82 1011.6
20260905102412 76 144 0.0 2.0 0.00 0.00 0.00 81 1011.7
20260905101411 77 144 1.0 3.0 0.00 0.00 0.00 80 1011.7
20260905100911 77 144 1.0 3.0 0.00 0.00 0.00 79 1011.7
20260905100412 78 144 0.0 1.0 0.00 0.00 0.00 79 1011.8
20260905095412 78 144 0.0 1.0 0.00 0.00 0.00 78 1011.8
20260905094912 78 144 0.0 1.0 0.00 0.00 0.00 79 1011.8
20260905094412 77 144 0.0 0.0 0.00 0.00 0.00 81 1011.7
20260905093912 77 144 0.0 0.0 0.00 0.00 0.00 80 1011.7
20260905093411 77 144 0.0 0.0 0.00 0.00 0.00 80 1011.7
20260905092912 77 144 0.0 0.0 0.00 0.00 0.00 80 1011.6
20260905091912 78 144 0.0 0.0 0.00 0.00 0.00 78 1011.6
20260905091412 78 144 0.0 0.0 0.00 0.00 0.00 78 1011.6
20260905090912 78 144 0.0 0.0 0.00 0.00 0.00 78 1011.5
20260905090412 79 144 0.0 0.0 0.00 0.00 0.00 77 1011.4
20260905085912 79 144 0.0 0.0 0.00 0.00 0.00 77 1011.4
20260905085413 79 144 0.0 0.0 0.00 0.00 0.00 77 1011.2
20260905084913 79 144 0.0 0.0 0.00 0.00 0.00 77 1011.3
20260905084412 79 144 0.0 0.0 0.00 0.00 0.00 77 1011.1
20260905083912 79 144 0.0 0.0 0.00 0.00 0.00 77 1011.2
20260905083412 79 144 0.0 1.0 0.00 0.00 0.00 77 1011.1
20260905082912 80 131 0.0 2.0 0.00 0.00 0.00 76 1011.3
20260905082412 80 118 1.0 2.0 0.00 0.00 0.00 75 1011.2
20260905081912 80 117 1.0 2.0 0.00 0.00 0.00 75 1011.4
20260905081412 81 117 0.0 1.0 0.00 0.00 0.00 74 1011.3
20260905080913 81 117 0.0 1.0 0.00 0.00 0.00 74 1011.4
20260905080413 81 117 0.0 1.0 0.00 0.00 0.00 73 1011.4
20260905074913 82 132 0.0 2.0 0.00 0.00 0.00 73 1011.3
20260905074412 82 132 1.0 2.0 0.00 0.00 0.00 73 1011.4
20260905073912 82 132 0.0 2.0 0.00 0.00 0.00 72 1011.4
20260905073412 82 161 0.0 3.0 0.00 0.00 0.00 72 1011.4
20260905072912 82 161 2.0 3.0 0.00 0.00 0.00 72 1011.4
20260905072413 82 165 2.0 3.0 0.00 0.00 0.00 72 1011.5
20260905071913 82 165 2.0 3.0 0.00 0.00 0.00 71 1011.4
20260905071413 82 165 3.0 3.0 0.00 0.00 0.00 71 1011.4
20260905070913 83 165 2.0 3.0 0.00 0.00 0.00 71 1011.4
20260905070413 83 165 3.0 3.0 0.00 0.00 0.00 70 1011.6
20260905065413 83 205 2.0 3.0 0.00 0.00 0.00 70 1011.5
20260905064914 83 206 2.0 3.0 0.00 0.00 0.00 70 1011.4
20260905064412 83 206 3.0 3.0 0.00 0.00 0.00 70 1011.6
20260905063913 83 167 1.0 3.0 0.00 0.00 0.00 70 1011.5
20260905063413 83 167 3.0 3.0 0.00 0.00 0.00 70 1011.7
20260905062913 83 167 3.0 3.0 0.00 0.00 0.00 70 1011.6
20260905062413 83 167 3.0 5.0 0.00 0.00 0.00 69 1011.6
20260905061413 83 156 3.0 5.0 0.00 0.00 0.00 69 1011.7
20260905060913 84 156 2.0 3.0 0.00 0.00 0.00 68 1011.6
20260905060413 84 156 2.0 3.0 0.00 0.00 0.00 68 1011.7
20260905055913 84 149 2.0 3.0 0.00 0.00 0.00 68 1011.5
20260905055413 84 155 2.0 3.0 0.00 0.00 0.00 68 1011.7
20260905054914 84 153 2.0 3.0 0.00 0.00 0.00 68 1011.4
20260905054414 84 153 2.0 3.0 0.00 0.00 0.00 68 1011.5
20260905053414 85 153 2.0 3.0 0.00 0.00 0.00 67 1011.4
20260905052914 85 153 2.0 5.0 0.00 0.00 0.00 67 1011.3
20260905052413 85 154 3.0 6.0 0.00 0.00 0.00 66 1011.3
20260905051913 85 162 5.0 6.0 0.00 0.00 0.00 66 1011.2
20260905051413 85 162 4.0 5.0 0.00 0.00 0.00 66 1011.1
20260905050913 85 163 4.0 5.0 0.00 0.00 0.00 66 1011.1
20260905050413 86 167 4.0 5.0 0.00 0.00 0.00 65 1011.2
20260905045913 86 166 3.0 5.0 0.00 0.00 0.00 65 1011.2
20260905045413 86 164 3.0 6.0 0.00 0.00 0.00 65 1011.3
20260905044913 86 164 5.0 6.0 0.00 0.00 0.00 64 1011.2
20260905044413 86 168 5.0 6.0 0.00 0.00 0.00 63 1011.1
20260905043914 86 147 4.0 6.0 0.00 0.00 0.00 62 1011.1
20260905043416 87 152 3.0 6.0 0.00 0.00 0.00 61 1011.2
20260905042914 87 143 5.0 7.0 0.00 0.00 0.00 61 1011.1
20260905042413 87 145 3.0 7.0 0.00 0.00 0.00 61 1011.1
20260905041914 87 151 5.0 8.0 0.00 0.00 0.00 61 1011.1
20260905041414 87 141 5.0 8.0 0.00 0.00 0.00 60 1011.2
20260905040914 87 151 5.0 7.0 0.00 0.00 0.00 60 1011.3
20260905040414 87 148 4.0 6.0 0.00 0.00 0.00 60 1011.3
20260905035914 87 150 4.0 6.0 0.00 0.00 0.00 60 1011.3
20260905035414 87 143 3.0 5.0 0.00 0.00 0.00 59 1011.3
20260905034414 88 139 3.0 5.0 0.00 0.00 0.00 59 1011.1
20260905033914 88 144 3.0 5.0 0.00 0.00 0.00 58 1011.2
20260905033414 88 145 3.0 5.0 0.00 0.00 0.00 58 1011.1
20260905032914 88 148 3.0 5.0 0.00 0.00 0.00 57 1011.1
20260905032414 89 142 4.0 5.0 0.00 0.00 0.00 57 1011.0
20260905031914 89 140 3.0 6.0 0.00 0.00 0.00 56 1011.0
20260905030915 89 119 3.0 6.0 0.00 0.00 0.00 56 1011.0
20260905030414 89 127 3.0 6.0 0.00 0.00 0.00 56 1010.9
20260905025914 89 131 3.0 6.0 0.00 0.00 0.00 56 1011.0
20260905025414 90 123 3.0 6.0 0.00 0.00 0.00 55 1010.8
20260905024915 90 131 3.0 6.0 0.00 0.00 0.00 55 1010.9
20260905024414 90 125 3.0 6.0 0.00 0.00 0.00 54 1010.7
20260905023914 91 131 3.0 6.0 0.00 0.00 0.00 54 1010.7
20260905023414 91 127 3.0 6.0 0.00 0.00 0.00 53 1010.6
20260905022914 91 120 3.0 6.0 0.00 0.00 0.00 53 1010.5
20260905022414 91 122 3.0 7.0 0.00 0.00 0.00 53 1010.4
20260905021914 92 114 3.0 7.0 0.00 0.00 0.00 52 1010.4
20260905021415 92 113 3.0 7.0 0.00 0.00 0.00 52 1010.3
20260905020415 92 117 4.0 7.0 0.00 0.00 0.00 52 1010.1
20260905015415 93 108 3.0 7.0 0.00 0.00 0.00 51 1009.9
20260905014915 93 113 4.0 7.0 0.00 0.00 0.00 51 1009.9
20260905014415 93 113 3.0 8.0 0.00 0.00 0.00 50 1009.8
20260905013915 93 106 5.0 9.0 0.00 0.00 0.00 50 1009.8
20260905013415 93 102 5.0 9.0 0.00 0.00 0.00 50 1009.7
20260905012915 94 116 5.0 12.0 0.00 0.00 0.00 50 1009.7
20260905012415 93 107 5.0 12.0 0.00 0.00 0.00 50 1009.6
20260905011917 94 126 6.0 12.0 0.00 0.00 0.00 50 1009.7
20260905011415 94 127 5.0 10.0 0.00 0.00 0.00 50 1009.4
20260905010915 94 122 6.0 12.0 0.00 0.00 0.00 50 1009.5
20260905010415 94 113 5.0 12.0 0.00 0.00 0.00 50 1009.4
20260905005415 94 116 5.0 14.0 0.00 0.00 0.00 50 1009.4
20260905004915 94 124 7.0 14.0 0.00 0.00 0.00 50 1009.3
20260905004415 95 130 5.0 14.0 0.00 0.00 0.00 50 1009.3
20260905003915 95 115 5.0 15.0 0.00 0.00 0.00 49 1009.2
20260905003415 95 126 7.0 15.0 0.00 0.00 0.00 49 1009.1
20260905002916 95 139 7.0 15.0 0.00 0.00 0.00 49 1009.2
20260905002415 95 134 5.0 9.0 0.00 0.00 0.00 47 1009.1
20260905001916 95 131 5.0 9.0 0.00 0.00 0.00 47 1009.1
20260905001415 96 166 7.0 12.0 0.00 0.00 0.00 47 1009.0
20260905000915 96 159 7.0 12.0 0.00 0.00 0.00 47 1008.9
20260905000417 96 179 7.0 12.0 0.00 0.00 0.00 46 1009.0
20260904235916 96 180 7.0 12.0 0.00 0.00 0.00 45 1008.9
20260904235415 96 153 8.0 12.0 0.00 0.00 0.00 45 1009.0
20260904234915 97 151 5.0 14.0 0.00 0.00 0.00 46 1009.0
20260904234417 97 162 9.0 14.0 0.00 0.00 0.00 45 1009.0
20260904232915 97 122 8.0 15.0 0.00 0.00 0.00 45 1008.9
20260904232415 97 132 6.0 15.0 0.00 0.00 0.00 44 1008.9
20260904231916 97 161 7.0 13.0 0.00 0.00 0.00 45 1008.9
20260904231416 97 186 8.0 13.0 0.00 0.00 0.00 45 1009.0
20260904230915 97 168 9.0 15.0 0.00 0.00 0.00 44 1009.1
20260904230415 97 182 9.0 15.0 0.00 0.00 0.00 44 1009.1
20260904225915 97 158 10.0 16.0 0.00 0.00 0.00 44 1009.0
20260904224916 97 175 11.0 16.0 0.00 0.00 0.00 44 1009.2
20260904224415 97 164 10.0 16.0 0.00 0.00 0.00 44 1009.1
20260904223915 97 171 11.0 17.0 0.00 0.00 0.00 44 1009.2
20260904223416 97 162 11.0 17.0 0.00 0.00 0.00 44 1009.2
20260904222916 97 169 10.0 16.0 0.00 0.00 0.00 44 1009.2
20260904222415 97 161 9.0 20.0 0.00 0.00 0.00 44 1009.1
20260904221916 97 157 10.0 20.0 0.00 0.00 0.00 44 1009.2
20260904221417 97 165 13.0 20.0 0.00 0.00 0.00 44 1009.3
20260904220916 98 178 12.0 17.0 0.00 0.00 0.00 44 1009.3
20260904220416 97 154 9.0 17.0 0.00 0.00 0.00 43 1009.3
20260904215916 97 149 12.0 17.0 0.00 0.00 0.00 44 1009.3
20260904215416 97 147 7.0 16.0 0.00 0.00 0.00 45 1009.4
20260904214916 97 168 8.0 16.0 0.00 0.00 0.00 45 1009.4
20260904214416 97 179 11.0 16.0 0.00 0.00 0.00 46 1009.5
20260904213916 97 156 9.0 15.0 0.00 0.00 0.00 46 1009.5
20260904213416 97 167 11.0 15.0 0.00 0.00 0.00 46 1009.5
20260904212916 97 133 8.0 15.0 0.00 0.00 0.00 45 1009.6
20260904212416 98 168 8.0 20.0 0.00 0.00 0.00 46 1009.6
20260904211917 97 139 9.0 20.0 0.00 0.00 0.00 46 1009.7
20260904211416 98 122 9.0 16.0 0.00 0.00 0.00 45 1009.9
20260904205917 97 141 9.0 16.0 0.00 0.00 0.00 47 1009.9
20260904204918 96 155 8.0 20.0 0.00 0.00 0.00 48 1010.1
20260904204416 96 140 13.0 20.0 0.00 0.00 0.00 47 1010.2
20260904203916 96 158 10.0 20.0 0.00 0.00 0.00 48 1010.2
20260904203416 96 149 10.0 20.0 0.00 0.00 0.00 49 1010.1
20260904202916 96 158 12.0 18.0 0.00 0.00 0.00 50 1010.3
20260904202416 95 112 7.0 20.0 0.00 0.00 0.00 50 1010.3
20260904201917 95 163 11.0 20.0 0.00 0.00 0.00 50 1010.5
20260904195416 95 146 10.0 16.0 0.00 0.00 0.00 52 1010.8
20260904194917 95 193 11.0 20.0 0.00 0.00 0.00 52 1010.9
20260904194417 95 143 12.0 20.0 0.00 0.00 0.00 51 1010.9
20260904193917 95 159 10.0 20.0 0.00 0.00 0.00 52 1011.1
20260904192917 95 164 6.0 20.0 0.00 0.00 0.00 52 1011.0
20260904191917 94 122 9.0 17.0 0.00 0.00 0.00 54 1011.2
20260904191417 94 163 11.0 17.0 0.00 0.00 0.00 54 1011.2
20260904190917 94 174 10.0 16.0 0.00 0.00 0.00 53 1011.3
20260904185917 93 142 10.0 16.0 0.00 0.00 0.00 54 1011.5
20260904185418 93 139 7.0 17.0 0.00 0.00 0.00 54 1011.5
20260904184917 94 156 9.0 20.0 0.00 0.00 0.00 54 1011.6
20260904184417 94 139 9.0 20.0 0.00 0.00 0.00 53 1011.7
20260904183918 93 143 12.0 21.0 0.00 0.00 0.00 54 1011.6
20260904182918 94 155 12.0 21.0 0.00 0.00 0.00 50 1011.8
20260904182417 94 154 12.0 18.0 0.00 0.00 0.00 51 1011.9
20260904181917 93 162 9.0 17.0 0.00 0.00 0.00 52 1011.8
20260904181417 93 168 9.0 17.0 0.00 0.00 0.00 54 1012.0
20260904180917 92 138 10.0 17.0 0.00 0.00 0.00 55 1011.9
20260904180418 93 159 12.0 20.0 0.00 0.00 0.00 55 1012.1
20260904175917 93 150 7.0 20.0 0.00 0.00 0.00 55 1012.0
20260904175418 93 166 10.0 20.0 0.00 0.00 0.00 55 1012.2
20260904174918 93 160 12.0 17.0 0.00 0.00 0.00 53 1012.2
20260904174417 93 124 9.0 16.0 0.00 0.00 0.00 54 1012.3
20260904173917 92 130 9.0 17.0 0.00 0.00 0.00 56 1012.3
20260904173417 92 151 9.0 18.0 0.00 0.00 0.00 54 1012.3
20260904172918 92 158 9.0 18.0 0.00 0.00 0.00 55 1012.5
20260904172418 92 150 8.0 13.0 0.00 0.00 0.00 58 1012.5
20260904171918 91 161 6.0 15.0 0.00 0.00 0.00 58 1012.6
20260904171418 90 144 9.0 15.0 0.00 0.00 0.00 60 1012.6
20260904170918 90 205 5.0 16.0 0.00 0.00 0.00 62 1012.7
20260904170418 90 137 8.0 16.0 0.00 0.00 0.00 62 1012.8
20260904165918 89 163 6.0 16.0 0.00 0.00 0.00 63 1012.9
20260904164918 89 199 7.0 15.0 0.00 0.00 0.00 61 1013.0
20260904164419 90 154 7.0 15.0 0.00 0.00 0.00 61 1013.0
20260904163918 90 226 9.0 15.0 0.00 0.00 0.00 61 1013.0
20260904163418 89 175 5.0 12.0 0.00 0.00 0.00 65 1012.9
20260904162919 88 179 6.0 12.0 0.00 0.00 0.00 65 1013.1
20260904162417 88 198 7.0 12.0 0.00 0.00 0.00 66 1013.0
20260904161918 87 194 6.0 16.0 0.00 0.00 0.00 66 1013.0
20260904161419 87 212 11.0 16.0 0.00 0.00 0.00 66 1013.2
20260904160918 87 219 5.0 14.0 0.00 0.00 0.00 68 1013.1
20260904160418 86 208 8.0 15.0 0.00 0.00 0.00 69 1013.2
20260904155918 86 186 7.0 15.0 0.00 0.00 0.00 71 1013.1
20260904155418 86 229 5.0 13.0 0.00 0.00 0.00 72 1013.1
20260904154919 85 221 8.0 13.0 0.00 0.00 0.00 73 1013.0
20260904154418 85 178 7.0 14.0 0.00 0.00 0.00 75 1013.0
20260904153918 84 204 9.0 15.0 0.00 0.00 0.00 76 1012.9
20260904153418 83 168 11.0 15.0 0.00 0.00 0.00 76 1013.0
20260904152918 83 166 8.0 13.0 0.00 0.00 0.00 78 1012.9
20260904152419 82 162 8.0 12.0 0.00 0.00 0.00 80 1013.0
20260904151919 82 145 9.0 15.0 0.00 0.00 0.00 80 1013.0
20260904151418 82 167 9.0 15.0 0.00 0.00 0.00 80 1012.9
20260904150918 82 152 9.0 16.0 0.00 0.00 0.00 80 1013.0
20260904150419 83 162 9.0 16.0 0.00 0.00 0.00 80 1012.9
20260904145919 83 140 9.0 13.0 0.00 0.00 0.00 80 1013.0
20260904145418 83 175 7.0 13.0 0.00 0.00 0.00 80 1013.0
20260904144918 82 169 9.0 17.0 0.00 0.00 0.00 81 1013.1
20260904144419 82 168 9.0 17.0 0.00 0.00 0.00 81 1013.0
20260904143919 82 167 9.0 14.0 0.00 0.00 0.00 81 1012.8
20260904143418 82 134 10.0 15.0 0.00 0.00 0.00 81 1012.8
20260904142920 82 155 9.0 16.0 0.00 0.00 0.00 82 1012.7
20260904142418 81 175 9.0 16.0 0.00 0.00 0.00 82 1012.7
20260904141918 81 156 9.0 15.0 0.00 0.00 0.00 83 1012.7
20260904141418 80 166 10.0 16.0 0.00 0.00 0.00 83 1012.7
20260904140919 80 176 10.0 16.0 0.00 0.00 0.00 83 1012.7
20260904140421 81 181 9.0 14.0 0.00 0.00 0.00 83 1012.7
20260904135919 80 157 10.0 14.0 0.00 0.00 0.00 83 1012.7
20260904135419 80 158 10.0 13.0 0.00 0.00 0.00 83 1012.6
20260904134919 80 174 8.0 12.0 0.00 0.00 0.00 83 1012.7
20260904134419 80 108 6.0 12.0 0.00 0.00 0.00 83 1012.5
20260904133419 80 163 7.0 12.0 0.00 0.00 0.00 84 1012.5
20260904132919 80 139 5.0 9.0 0.00 0.00 0.00 84 1012.6
20260904131919 79 110 4.0 9.0 0.00 0.00 0.00 84 1012.4
20260904131419 79 123 5.0 8.0 0.00 0.00 0.00 84 1012.4
20260904130919 79 109 2.0 8.0 0.00 0.00 0.00 84 1012.4